Location: Le Vaud
(46.4779°N, 6.2346°E)
Time: 16:58:15
(UTC+00:00)

H-2A R/B - Pass Details

Date: 18 February 2020
Orbit: 529 x 653 km, 98.3° (Epoch: 06 April)

Event Time Altitude Azimuth Distance (km) Brightness Sun altitude
Rises 03:49:05 0° 20° (NNE) 2,904 6.4 -29.1°
Reaches altitude 10° 03:51:22 10° 28° (NNE) 2,011 5.6 -28.7°
Maximum altitude 03:55:31 40° 99° (E) 940 3.8 -28.0°
Enters shadow 03:57:35 25° 152° (SSE) 1,300 4.3 -27.6°
